EW8784 Weather Reports


time (UTC)temp
C
wind
direction
speed
KPH
gust
KPH
rain 1hr
cm
rain 24hr
cm
rain mn
cm
humidity
%
barometer
mb
20260502123008 19 308 0.0 0.0 0.00 0.00 0.00 66 1014.5
20260502114508 20 294 0.0 0.0 0.00 0.00 0.00 60 1014.0
20260502113006 20 294 0.0 0.0 0.00 0.00 0.00 58 1013.6
20260502111503 21 294 0.0 0.0 0.00 0.00 0.00 56 1013.4
20260502104503 22 294 0.0 0.0 0.00 0.00 0.00 53 1012.9
20260502103006 22 294 0.0 0.0 0.00 0.00 0.00 52 1012.7
20260502101503 22 288 1.6 1.6 0.00 0.00 0.00 50 1012.4
20260502091502 25 0 0.0 0.0 0.00 0.00 0.00 27 1011.6
20260502071504 28 308 1.6 4.8 0.00 0.00 0.00 24 1009.8
20260502070005 28 214 1.6 3.2 0.00 0.00 0.00 24 1009.5
20260502064503 28 89 1.6 4.8 0.00 0.00 0.00 22 1009.5
20260502061508 29 122 3.2 6.4 0.00 0.00 0.00 22 1009.2
20260502060005 28 73 4.8 16.1 0.00 0.00 0.00 24 1009.2
20260502054508 27 135 3.2 8.0 0.00 0.00 0.00 29 1009.1
20260502053004 27 242 8.0 14.5 0.00 0.00 0.00 30 1009.2
20260502051508 26 194 11.3 20.9 0.00 0.00 0.00 33 1009.2
20260502050009 27 104 8.0 14.5 0.00 0.00 0.00 30 1009.1
20260502044506 26 76 9.7 16.1 0.00 0.00 0.00 33 1009.3
20260502043004 26 359 9.7 17.7 0.00 0.00 0.00 31 1009.3
20260502040007 25 316 9.7 16.1 0.00 0.00 0.00 28 1009.5
20260502033007 25 135 12.9 27.4 0.00 0.00 0.00 33 1009.3
20260502031505 25 290 12.9 24.1 0.00 0.00 0.00 28 1009.1
20260502030007 23 359 9.7 16.1 0.00 0.00 0.00 32 1009.0
20260502023007 23 163 11.3 24.1 0.00 0.00 0.00 48 1008.8
20260502020005 23 198 9.7 20.9 0.00 0.00 0.00 42 1008.7
20260502014502 24 173 8.0 14.5 0.00 0.00 0.00 34 1008.3
20260502013005 23 229 8.0 11.3 0.00 0.00 0.00 38 1008.3
20260502011502 23 212 8.0 14.5 0.00 0.00 0.00 40 1008.3
20260502010004 22 139 8.0 14.5 0.00 0.00 0.00 47 1008.3
20260502004507 22 359 8.0 17.7 0.00 0.00 0.00 48 1008.2
20260502003004 21 359 8.0 14.5 0.00 0.00 0.00 49 1008.2
20260502001501 21 359 11.3 16.1 0.00 0.00 0.00 51 1008.2
20260501234505 20 145 6.4 16.1 0.00 0.00 0.00 58 1008.2
20260501231505 20 174 12.9 17.7 0.00 0.00 0.00 66 1007.9
20260501230007 19 197 8.0 14.5 0.00 0.00 0.00 64 1007.7
20260501223007 18 333 6.4 11.3 0.00 0.00 0.00 80 1007.4
20260501221504 18 219 4.8 9.7 0.00 0.00 0.00 89 1007.2
20260501220006 17 170 1.6 6.4 0.00 0.00 0.00 95 1007.2
20260501214503 17 114 0.0 0.0 0.00 0.00 0.00 100 1006.7
20260501213006 16 114 0.0 0.0 0.00 0.00 0.00 100 1006.1
20260501211503 16 114 0.0 0.0 0.00 0.00 0.00 100 1005.5
20260501204502 15 114 0.0 0.0 0.00 0.00 0.00 100 1004.9
20260501203005 15 114 0.0 0.0 0.00 0.00 0.00 100 1004.6
20260501201503 15 114 0.0 0.0 0.00 0.00 0.00 100 1004.4
20260501200004 15 163 0.0 0.0 0.00 0.00 0.00 100 1003.7
20260501194507 16 163 0.0 0.0 0.00 0.00 0.00 100 1003.4
20260501193004 16 163 0.0 0.0 0.00 0.00 0.00 100 1002.9
20260501191508 16 295 0.0 0.0 0.00 0.00 0.00 100 1002.8
20260501190004 16 141 9.7 17.7 0.00 0.00 0.00 100 1002.5
20260501184507 16 359 9.7 17.7 0.00 0.00 0.00 100 1001.9
20260501183005 16 148 16.1 29.0 0.00 0.00 0.00 95 1001.6
20260501181503 16 156 14.5 25.7 0.00 0.00 0.00 92 1001.2
20260501180005 16 359 9.7 20.9 0.00 0.00 0.00 84 1001.0
20260501174508 16 198 16.1 27.4 0.00 0.00 0.00 84 1000.4
20260501173005 16 143 16.1 29.0 0.00 0.00 0.00 76 1000.4
20260501164505 16 118 11.3 29.0 0.00 0.00 0.00 70 1000.4
20260501163009 16 113 12.9 25.7 0.00 0.00 0.00 70 1000.2
20260501161506 16 359 9.7 19.3 0.00 0.00 0.00 69 1000.3
20260501160003 16 141 12.9 29.0 0.00 0.00 0.00 69 1000.2
20260501154505 16 160 17.7 27.4 0.00 0.00 0.00 67 1000.2
20260501153002 16 359 9.7 17.7 0.00 0.00 0.00 61 1000.2
20260501151506 17 169 14.5 25.7 0.00 0.00 0.00 61 999.9
20260501143007 17 127 17.7 27.4 0.00 0.00 0.00 57 999.5